Location: �perlecques
(50.8057°N, 2.1521°E)
Time: 01:31:55
(UTC+00:00)

VELOX 1 - Pass Details

Date: 25 September 2021
Orbit: 627 x 642 km, 98.3° (Epoch: 21 October)

Event Time Altitude Azimuth Distance (km) Brightness Sun altitude
Exits shadow 02:43:13 28° 124° (SE) 1,179 ? -27.3°
Maximum altitude 02:45:06 47° 68° (ENE) 846 ? -27.1°
Drops below altitude 10° 02:49:18 10° 356° (N) 2,020 ? -26.5°
Sets 02:51:34 0° 350° (N) 2,930 ? -26.3°
